| time (UTC) | temp C | wind direction | speed KPH | gust KPH | rain 1hr cm | rain 24hr cm | rain mn cm | humidity % | barometer mb |
| 20260505091616 | 7 | 241 | 11.3 | 24.1 | 0.00 | 0.99 | 0.00 | 84 | 1008.7 |
| 20260505090104 | 6 | 244 | 8.0 | 17.7 | 0.00 | 0.99 | 0.00 | 85 | 1008.5 |
| 20260505084602 | 6 | 285 | 6.4 | 16.1 | 0.00 | 0.99 | 0.00 | 85 | 1008.3 |
| 20260505083059 | 6 | 238 | 6.4 | 12.9 | 0.00 | 0.99 | 0.00 | 85 | 1008.1 |
| 20260505081555 | 6 | 244 | 6.4 | 14.5 | 0.00 | 0.99 | 0.00 | 85 | 1007.9 |
| 20260505080052 | 7 | 253 | 4.8 | 12.9 | 0.00 | 0.99 | 0.00 | 84 | 1007.8 |
| 20260505074638 | 7 | 269 | 9.7 | 19.3 | 0.00 | 1.09 | 0.00 | 84 | 1007.5 |
| 20260505073048 | 7 | 257 | 8.0 | 17.7 | 0.00 | 1.09 | 0.00 | 84 | 1007.3 |
| 20260505071544 | 7 | 273 | 9.7 | 16.1 | 0.00 | 1.09 | 0.00 | 84 | 1007.0 |
| 20260505070040 | 7 | 282 | 6.4 | 17.7 | 0.00 | 1.17 | 0.00 | 84 | 1006.8 |
| 20260505064529 | 7 | 239 | 6.4 | 16.1 | 0.00 | 1.17 | 0.00 | 84 | 1006.7 |
| 20260505063035 | 7 | 261 | 9.7 | 14.5 | 0.00 | 1.17 | 0.00 | 84 | 1006.6 |
| 20260505061528 | 6 | 269 | 4.8 | 12.9 | 0.00 | 1.17 | 0.00 | 84 | 1006.3 |
| 20260505060043 | 7 | 244 | 6.4 | 16.1 | 0.00 | 1.24 | 0.00 | 84 | 1005.9 |
| 20260505054521 | 7 | 253 | 8.0 | 16.1 | 0.00 | 1.24 | 0.00 | 84 | 1005.6 |
| 20260505053015 | 7 | 255 | 8.0 | 20.9 | 0.00 | 1.24 | 0.00 | 84 | 1005.4 |
| 20260505051514 | 7 | 257 | 6.4 | 16.1 | 0.00 | 1.24 | 0.00 | 84 | 1005.2 |
| 20260505041506 | 7 | 277 | 3.2 | 12.9 | 0.00 | 1.30 | 0.00 | 84 | 1004.6 |
| 20260505034556 | 7 | 275 | 4.8 | 11.3 | 0.00 | 1.32 | 0.00 | 83 | 1004.3 |
| 20260505033054 | 7 | 277 | 6.4 | 14.5 | 0.00 | 1.32 | 0.00 | 83 | 1004.0 |
| 20260505031552 | 8 | 259 | 4.8 | 14.5 | 0.00 | 1.32 | 0.00 | 82 | 1003.8 |
| 20260505030108 | 8 | 236 | 6.4 | 12.9 | 0.00 | 1.32 | 0.00 | 81 | 1003.6 |
| 20260505024549 | 8 | 258 | 4.8 | 19.3 | 0.00 | 1.37 | 1.32 | 80 | 1003.4 |
| 20260505023044 | 8 | 265 | 4.8 | 12.9 | 0.00 | 1.37 | 1.32 | 77 | 1003.1 |
| 20260505021544 | 9 | 275 | 4.8 | 12.9 | 0.00 | 1.37 | 1.32 | 73 | 1003.0 |
| 20260505020043 | 9 | 196 | 6.4 | 14.5 | 0.00 | 1.37 | 1.32 | 72 | 1002.8 |
| 20260505014602 | 9 | 221 | 3.2 | 11.3 | 0.00 | 2.11 | 1.32 | 72 | 1002.6 |
| 20260505013049 | 9 | 273 | 8.0 | 16.1 | 0.00 | 2.11 | 1.32 | 72 | 1002.5 |
| 20260505011543 | 8 | 268 | 11.3 | 17.7 | 0.00 | 2.11 | 1.32 | 75 | 1002.6 |
| 20260505010050 | 5 | 282 | 4.8 | 8.0 | 0.00 | 2.92 | 1.32 | 83 | 1002.5 |
| 20260505004546 | 5 | 212 | 0.0 | 3.2 | 0.00 | 2.92 | 1.32 | 79 | 1002.1 |
| 20260505003051 | 6 | 212 | 1.6 | 6.4 | 0.00 | 2.92 | 1.32 | 76 | 1002.1 |
| 20260505001534 | 7 | 212 | 0.0 | 9.7 | 0.00 | 2.92 | 1.32 | 72 | 1002.1 |
| 20260505000035 | 7 | 251 | 4.8 | 12.9 | 0.00 | 3.53 | 1.32 | 70 | 1001.9 |
| 20260504234529 | 8 | 244 | 4.8 | 17.7 | 0.00 | 3.53 | 1.32 | 69 | 1001.6 |
| 20260504233029 | 8 | 282 | 3.2 | 16.1 | 0.00 | 3.53 | 1.32 | 69 | 1001.2 |
| 20260504231527 | 8 | 253 | 4.8 | 16.1 | 0.00 | 3.53 | 1.32 | 68 | 1000.9 |
| 20260504230025 | 8 | 277 | 6.4 | 14.5 | 0.00 | 4.34 | 1.32 | 68 | 1000.7 |
| 20260504224522 | 9 | 250 | 6.4 | 12.9 | 0.00 | 4.34 | 1.32 | 67 | 1000.5 |
| 20260504223022 | 9 | 250 | 6.4 | 14.5 | 0.00 | 4.34 | 1.32 | 66 | 1000.4 |
| 20260504221522 | 10 | 251 | 4.8 | 14.5 | 0.00 | 4.34 | 1.32 | 66 | 1000.2 |
| 20260504220018 | 10 | 242 | 8.0 | 16.1 | 0.00 | 4.78 | 1.32 | 66 | 1000.2 |
| 20260504214518 | 10 | 223 | 8.0 | 16.1 | 0.00 | 4.78 | 1.32 | 65 | 999.9 |
| 20260504213023 | 11 | 281 | 9.7 | 17.7 | 0.00 | 4.78 | 1.32 | 65 | 999.8 |
| 20260504211529 | 10 | 238 | 6.4 | 20.9 | 0.00 | 4.78 | 1.32 | 67 | 999.5 |
| 20260504210015 | 10 | 284 | 11.3 | 20.9 | 0.00 | 4.93 | 1.32 | 67 | 999.5 |
| 20260504204515 | 11 | 258 | 12.9 | 27.4 | 0.00 | 4.93 | 1.32 | 67 | 999.3 |
| 20260504203010 | 10 | 310 | 12.9 | 25.7 | 0.00 | 4.93 | 1.32 | 69 | 999.5 |
| 20260504201506 | 10 | 314 | 11.3 | 20.9 | 0.00 | 4.93 | 1.32 | 69 | 999.1 |
| 20260504200006 | 10 | 261 | 11.3 | 29.0 | 0.00 | 5.08 | 1.32 | 70 | 998.8 |
| 20260504194606 | 10 | 295 | 9.7 | 27.4 | 0.00 | 5.08 | 1.32 | 71 | 998.4 |
| 20260504193107 | 10 | 228 | 9.7 | 22.5 | 0.00 | 5.08 | 1.32 | 72 | 998.0 |
| 20260504191608 | 10 | 244 | 16.1 | 25.7 | 0.00 | 5.08 | 1.32 | 74 | 997.6 |
| 20260504190104 | 9 | 235 | 6.4 | 19.3 | 0.00 | 5.08 | 1.32 | 77 | 997.4 |
| 20260504184552 | 9 | 264 | 16.1 | 32.2 | 0.00 | 5.08 | 1.32 | 77 | 996.9 |
| 20260504183041 | 8 | 287 | 11.3 | 22.5 | 0.00 | 5.08 | 1.32 | 80 | 996.7 |
| 20260504181538 | 7 | 243 | 11.3 | 20.9 | 0.00 | 5.08 | 1.32 | 81 | 996.5 |
| 20260504180035 | 7 | 301 | 12.9 | 27.4 | 0.00 | 5.08 | 1.32 | 82 | 996.2 |
| 20260504174536 | 7 | 265 | 11.3 | 33.8 | 0.00 | 5.08 | 1.32 | 83 | 995.9 |
| 20260504173031 | 7 | 280 | 9.7 | 37.0 | 0.00 | 5.08 | 1.32 | 84 | 995.7 |
| 20260504171529 | 7 | 243 | 14.5 | 29.0 | 0.00 | 5.08 | 1.32 | 86 | 995.2 |